User: anonymous   Login
Location: Unspecified
(0.0000°N, 0.0000°E)
Time: 10:01:20
(UTC+01:00)
Language:

ASC 2 Rocket - Orbit

View from above orbital plane
View from above orbital plane
View from above satellite
View from above satellite

Ground track
Ground track

The orbit data is extracted from the following two-line orbital elements,

1 21228U 91028B   14303.96527668  .00000335  00000-0  81974-4 0  4253
2 21228 023.9918 136.8287 1145243 332.8370 193.1470 12.52857134 77232
Epoch (UTC): 30 October 2014 23:09:59
Eccentricity: 0.1145243
inclination: 23.9918°
perigee height: 556 km
apogee height: 2349 km
right ascension of ascending node: 136.8287°
argument of perigee: 332.8370°
revolutions per day: 12.52857134
mean anomaly at epoch: 193.1470°
orbit number at epoch: 7723

The dashed part of the orbit path shows where the satellite is in the earth's shadow,  

DLR